PBD588 UMKK-ULLI

Flight info

Callsign PBD588
Flight time 1h 20m
Altitude 35000
Route PELUG3M PELUG DCT KEDUX DCT PIVAX DCT PINIX DCT PIRUX DCT PISIM DCT PIDIN DCT ARANS DCT PISIS DCT AKARU AKARU1V
Aircraft B738/M-VGDW/C

Departure

Time 2026-05-05 16:31
Airport Khrabrovo Airport (UMKK)

Arrival

Time 2026-05-05 17:51
Airport Pulkovo Airport (ULLI)
Time Latitude Longitude Altitude Speed Heading
2026-05-05 16:10 54.88415 20.58646 26 ft 0 kts 155°
2026-05-05 16:24 54.88417 20.58644 26 ft 3 kts 155°
2026-05-05 16:24 54.88440 20.58625 26 ft 4 kts 163°
2026-05-05 16:24 54.88482 20.58647 29 ft 1 kts 245°
2026-05-05 16:25 54.88482 20.58648 29 ft 1 kts 245°
2026-05-05 16:27 54.88479 20.58638 29 ft 3 kts 245°
2026-05-05 16:27 54.88461 20.58571 28 ft 9 kts 245°
2026-05-05 16:27 54.88428 20.58447 28 ft 14 kts 243°
2026-05-05 16:27 54.88377 20.58299 27 ft 15 kts 237°
2026-05-05 16:28 54.88317 20.58137 26 ft 16 kts 237°
2026-05-05 16:28 54.88267 20.57960 28 ft 16 kts 246°
2026-05-05 16:28 54.88229 20.57790 26 ft 14 kts 267°
2026-05-05 16:28 54.88300 20.57688 27 ft 14 kts 334°
2026-05-05 16:29 54.88385 20.57619 27 ft 13 kts 335°
2026-05-05 16:29 54.88471 20.57552 24 ft 15 kts 336°
2026-05-05 16:29 54.88549 20.57511 19 ft 7 kts 19°
2026-05-05 16:29 54.88573 20.57570 19 ft 6 kts 65°
2026-05-05 16:30 54.88600 20.57674 19 ft 24 kts 66°
2026-05-05 16:30 54.88766 20.58314 23 ft 92 kts 66°
2026-05-05 16:30 54.89114 20.59658 26 ft 149 kts 67°
2026-05-05 16:30 54.89547 20.61391 583 ft 152 kts 65°
2026-05-05 16:31 54.89983 20.63123 1304 ft 166 kts 63°
2026-05-05 16:31 54.90471 20.64955 2014 ft 171 kts 63°
2026-05-05 16:31 54.90973 20.66862 2724 ft 174 kts 64°
2026-05-05 16:31 54.91480 20.68776 3451 ft 179 kts 64°
2026-05-05 16:32 54.92061 20.70888 3766 ft 209 kts 53°
2026-05-05 16:32 54.93273 20.72351 3990 ft 225 kts
2026-05-05 16:32 54.94848 20.71975 4188 ft 241 kts 328°
2026-05-05 16:32 54.96124 20.69961 4619 ft 255 kts 309°
2026-05-05 16:33 54.97282 20.67555 5357 ft 262 kts 308°
2026-05-05 16:33 54.98447 20.65133 6194 ft 265 kts 307°
2026-05-05 16:33 54.99651 20.62665 6975 ft 269 kts 307°
2026-05-05 16:33 55.00865 20.60214 7900 ft 266 kts 307°
2026-05-05 16:34 55.02093 20.57751 8682 ft 271 kts 307°
2026-05-05 16:34 55.03343 20.55260 9492 ft 274 kts 307°
2026-05-05 16:34 55.04602 20.52762 10238 ft 279 kts 307°
2026-05-05 16:34 55.05933 20.50114 10465 ft 302 kts 306°
2026-05-05 16:35 55.07341 20.47214 10650 ft 324 kts 306°
2026-05-05 16:35 55.08852 20.44126 10936 ft 342 kts 307°
2026-05-05 16:35 55.10445 20.40977 11524 ft 348 kts 308°
2026-05-05 16:35 55.12052 20.37860 12286 ft 349 kts 308°
2026-05-05 16:36 55.13684 20.34707 13062 ft 352 kts 307°
2026-05-05 16:36 55.15546 20.31840 13773 ft 366 kts 324°
2026-05-05 16:36 55.17902 20.29984 14463 ft 374 kts 333°
2026-05-05 16:36 55.20347 20.28320 15110 ft 380 kts 333°
2026-05-05 16:37 55.22834 20.26659 15751 ft 385 kts 333°
2026-05-05 16:37 55.25351 20.24975 16408 ft 389 kts 333°
2026-05-05 16:37 55.27893 20.23262 17076 ft 393 kts 333°
2026-05-05 16:37 55.30457 20.21520 17742 ft 397 kts 333°
2026-05-05 16:38 55.33041 20.19751 18373 ft 400 kts 333°
2026-05-05 16:38 55.35644 20.17961 18930 ft 404 kts 333°
2026-05-05 16:38 55.38273 20.16144 19494 ft 407 kts 333°
2026-05-05 16:38 55.40920 20.14311 20055 ft 411 kts 333°
2026-05-05 16:39 55.43595 20.12455 20603 ft 414 kts 332°
2026-05-05 16:39 55.46284 20.10586 21183 ft 417 kts 332°
2026-05-05 16:39 55.48985 20.08706 21754 ft 419 kts 332°
2026-05-05 16:39 55.51707 20.06808 22260 ft 422 kts 332°
2026-05-05 16:40 55.54416 20.04916 22737 ft 426 kts 332°
2026-05-05 16:40 55.57187 20.02978 23229 ft 429 kts 332°
2026-05-05 16:40 55.59978 20.01023 23681 ft 433 kts 332°
2026-05-05 16:40 55.62790 19.99052 24100 ft 435 kts 332°
2026-05-05 16:41 55.65613 19.97069 24501 ft 438 kts 331°
2026-05-05 16:41 55.68460 19.95066 24887 ft 442 kts 331°
2026-05-05 16:41 55.71342 19.93034 25252 ft 445 kts 331°
2026-05-05 16:41 55.74226 19.91000 25656 ft 447 kts 331°
2026-05-05 16:42 55.77130 19.88948 26075 ft 449 kts 330°
2026-05-05 16:42 55.80041 19.86888 26458 ft 452 kts 330°
2026-05-05 16:42 55.82975 19.84807 26815 ft 454 kts 330°
2026-05-05 16:42 55.85885 19.82740 27157 ft 457 kts 330°
2026-05-05 16:43 55.88852 19.80629 27520 ft 460 kts 330°
2026-05-05 16:43 55.91833 19.78504 27896 ft 462 kts 330°
2026-05-05 16:43 55.94830 19.76366 28259 ft 464 kts 330°
2026-05-05 16:43 55.97842 19.74212 28604 ft 467 kts 330°
2026-05-05 16:44 56.00868 19.72045 28938 ft 470 kts 330°
2026-05-05 16:44 56.03908 19.69864 29261 ft 472 kts 330°
2026-05-05 16:44 56.06960 19.67672 29715 ft 471 kts 331°
2026-05-05 16:44 56.09979 19.65506 30471 ft 463 kts 331°
2026-05-05 16:45 56.12954 19.63367 31043 ft 458 kts 331°
2026-05-05 16:45 56.15875 19.61254 31354 ft 459 kts 331°
2026-05-05 16:45 56.18913 19.59356 31597 ft 470 kts 340°
2026-05-05 16:45 56.22187 19.58538 31923 ft 481 kts 352°
2026-05-05 16:46 56.25547 19.58893 32368 ft 488 kts
2026-05-05 16:46 56.28871 19.60210 32836 ft 489 kts
2026-05-05 16:46 56.32171 19.61702 33213 ft 489 kts
2026-05-05 16:46 56.35468 19.63230 33526 ft 489 kts
2026-05-05 16:47 56.38764 19.64743 33969 ft 487 kts
2026-05-05 16:47 56.42036 19.66217 34397 ft 483 kts
2026-05-05 16:47 56.45296 19.67656 34695 ft 482 kts
2026-05-05 16:47 56.48561 19.69077 34890 ft 484 kts
2026-05-05 16:48 56.55169 19.71932 34904 ft 491 kts
2026-05-05 16:48 56.61847 19.74830 34901 ft 495 kts
2026-05-05 16:49 56.68550 19.77764 34904 ft 495 kts
2026-05-05 16:49 56.75201 19.80686 34896 ft 494 kts
2026-05-05 16:50 56.81877 19.83628 34900 ft 493 kts
2026-05-05 16:50 56.88535 19.86572 34898 ft 492 kts
2026-05-05 16:51 56.95190 19.89525 34902 ft 490 kts
2026-05-05 16:51 57.01811 19.92505 34895 ft 490 kts
2026-05-05 16:52 57.08365 19.95997 34896 ft 491 kts 12°
2026-05-05 16:52 57.14894 19.99684 34891 ft 490 kts 12°
2026-05-05 16:53 57.21423 20.03328 34892 ft 490 kts 12°
2026-05-05 16:53 57.27908 20.06901 34896 ft 489 kts 11°
2026-05-05 16:54 57.34436 20.10492 34892 ft 489 kts 11°
2026-05-05 16:54 57.40974 20.14103 34899 ft 489 kts 11°
2026-05-05 16:55 57.47518 20.17733 34913 ft 491 kts 11°
2026-05-05 16:55 57.54073 20.21385 34893 ft 492 kts 11°
2026-05-05 16:56 57.60628 20.25052 34890 ft 492 kts 11°
2026-05-05 16:56 57.67157 20.28718 34886 ft 492 kts 11°
2026-05-05 16:57 57.73736 20.32424 34891 ft 494 kts 11°
2026-05-05 16:57 57.80332 20.36155 34889 ft 494 kts 11°
2026-05-05 16:58 57.86927 20.39900 34885 ft 495 kts 11°
2026-05-05 16:58 57.93479 20.43635 34884 ft 495 kts 11°
2026-05-05 16:59 58.00084 20.47414 34887 ft 496 kts 11°
2026-05-05 16:59 58.06696 20.51213 34883 ft 496 kts 11°
2026-05-05 17:00 58.13318 20.55032 34881 ft 497 kts 11°
2026-05-05 17:00 58.19926 20.58857 34880 ft 497 kts 11°
2026-05-05 17:01 58.26510 20.62683 34881 ft 498 kts 10°
2026-05-05 17:01 58.33151 20.66557 34877 ft 499 kts 11°
2026-05-05 17:02 58.39749 20.70819 34868 ft 502 kts 14°
2026-05-05 17:02 58.45195 20.74664 34869 ft 502 kts 14°
2026-05-05 17:03 58.51758 20.79295 34880 ft 503 kts 13°
2026-05-05 17:03 58.58348 20.83879 34874 ft 504 kts 13°
2026-05-05 17:04 58.64955 20.88461 34868 ft 504 kts 13°
2026-05-05 17:04 58.71550 20.93053 34865 ft 504 kts 13°
2026-05-05 17:05 58.78150 20.97672 34877 ft 505 kts 13°
2026-05-05 17:05 58.84716 21.02288 34863 ft 505 kts 13°
2026-05-05 17:06 58.91322 21.06951 34856 ft 505 kts 13°
2026-05-05 17:06 58.97923 21.11628 34858 ft 505 kts 13°
2026-05-05 17:07 59.04200 21.18032 34867 ft 524 kts 36°
2026-05-05 17:07 59.06722 21.23228 34861 ft 533 kts 51°
2026-05-05 17:07 59.08609 21.29452 34880 ft 536 kts 62°
2026-05-05 17:08 59.11868 21.42540 34858 ft 538 kts 63°
2026-05-05 17:08 59.15100 21.55589 34852 ft 538 kts 63°
2026-05-05 17:09 59.18420 21.68687 34845 ft 537 kts 62°
2026-05-05 17:09 59.21750 21.81726 34884 ft 537 kts 62°
2026-05-05 17:10 59.25078 21.94830 34861 ft 538 kts 62°
2026-05-05 17:10 59.28381 22.07942 34858 ft 538 kts 63°
2026-05-05 17:11 59.31672 22.21094 34858 ft 538 kts 63°
2026-05-05 17:11 59.34927 22.34186 34856 ft 538 kts 63°
2026-05-05 17:12 59.38194 22.47401 34855 ft 538 kts 63°
2026-05-05 17:12 59.41436 22.60590 34841 ft 538 kts 63°
2026-05-05 17:13 59.44691 22.73914 34850 ft 537 kts 63°
2026-05-05 17:13 59.47909 22.87167 34841 ft 537 kts 63°
2026-05-05 17:14 59.51090 23.00350 34848 ft 536 kts 63°
2026-05-05 17:14 59.54278 23.13632 34849 ft 536 kts 64°
2026-05-05 17:15 59.56945 23.27352 34848 ft 536 kts 72°
2026-05-05 17:15 59.59091 23.41453 34835 ft 537 kts 73°
2026-05-05 17:16 59.61225 23.55563 34831 ft 536 kts 73°
2026-05-05 17:16 59.63423 23.69657 34829 ft 536 kts 72°
2026-05-05 17:17 59.65634 23.83747 34831 ft 536 kts 73°
2026-05-05 17:17 59.67826 23.97849 34830 ft 536 kts 73°
2026-05-05 17:18 59.69998 24.11981 34865 ft 536 kts 73°
2026-05-05 17:18 59.72144 24.26070 34828 ft 537 kts 73°
2026-05-05 17:19 59.74289 24.40253 34825 ft 537 kts 73°
2026-05-05 17:19 59.76332 24.54503 34819 ft 536 kts 76°
2026-05-05 17:20 59.78131 24.68896 34823 ft 536 kts 77°
2026-05-05 17:20 59.79883 24.83215 34817 ft 536 kts 77°
2026-05-05 17:21 59.81667 24.97592 34813 ft 536 kts 77°
2026-05-05 17:22 59.84349 25.19212 34813 ft 536 kts 77°
2026-05-05 17:22 59.86115 25.33645 34802 ft 536 kts 77°
2026-05-05 17:23 59.87863 25.48093 34812 ft 536 kts 77°
2026-05-05 17:23 59.89583 25.62455 34808 ft 536 kts 77°
2026-05-05 17:24 59.91297 25.76909 34800 ft 536 kts 77°
2026-05-05 17:24 59.93000 25.91410 34803 ft 536 kts 77°
2026-05-05 17:25 59.94684 26.05894 34825 ft 535 kts 78°
2026-05-05 17:25 59.96347 26.20389 34803 ft 536 kts 78°
2026-05-05 17:26 59.97994 26.34891 34801 ft 536 kts 78°
2026-05-05 17:26 59.99629 26.49429 34790 ft 536 kts 78°
2026-05-05 17:27 60.01238 26.63891 34792 ft 536 kts 78°
2026-05-05 17:27 60.02841 26.78461 34792 ft 536 kts 78°
2026-05-05 17:28 60.04429 26.93034 34788 ft 536 kts 78°
2026-05-05 17:28 60.05921 27.07660 34796 ft 537 kts 81°
2026-05-05 17:29 60.07188 27.22391 34780 ft 537 kts 82°
2026-05-05 17:29 60.08415 27.37078 34779 ft 537 kts 82°
2026-05-05 17:30 60.09660 27.51760 34764 ft 527 kts 82°
2026-05-05 17:30 60.10884 27.66175 34554 ft 523 kts 82°
2026-05-05 17:30 60.11490 27.73393 33948 ft 524 kts 82°
2026-05-05 17:31 60.12091 27.80606 33259 ft 524 kts 82°
2026-05-05 17:31 60.12688 27.87826 32526 ft 525 kts 82°
2026-05-05 17:31 60.13273 27.94962 31816 ft 526 kts 82°
2026-05-05 17:31 60.13865 28.02221 31090 ft 527 kts 82°
2026-05-05 17:32 60.14452 28.09485 30356 ft 529 kts 82°
2026-05-05 17:32 60.15041 28.16816 29473 ft 532 kts 82°
2026-05-05 17:32 60.15627 28.24163 28553 ft 534 kts 82°
2026-05-05 17:32 60.16210 28.31535 27637 ft 535 kts 82°
2026-05-05 17:33 60.16791 28.38926 26825 ft 534 kts 83°
2026-05-05 17:33 60.17365 28.46265 26201 ft 529 kts 83°
2026-05-05 17:33 60.17930 28.53538 25531 ft 524 kts 82°
2026-05-05 17:33 60.18469 28.60732 24928 ft 518 kts 85°
2026-05-05 17:34 60.18482 28.67812 24311 ft 508 kts 103°
2026-05-05 17:34 60.17829 28.74715 23805 ft 499 kts 106°
2026-05-05 17:34 60.17143 28.81552 23214 ft 498 kts 106°
2026-05-05 17:34 60.16479 28.88377 22559 ft 498 kts 105°
2026-05-05 17:35 60.15843 28.95219 21964 ft 496 kts 105°
2026-05-05 17:35 60.15233 29.02002 21402 ft 491 kts 104°
2026-05-05 17:35 60.14636 29.08712 20833 ft 486 kts 104°
2026-05-05 17:35 60.14041 29.15376 20283 ft 482 kts 104°
2026-05-05 17:36 60.13445 29.21975 19704 ft 478 kts 104°
2026-05-05 17:36 60.12858 29.28404 19202 ft 473 kts 104°
2026-05-05 17:36 60.12262 29.34879 18679 ft 469 kts 104°
2026-05-05 17:36 60.11668 29.41294 18151 ft 466 kts 104°
2026-05-05 17:37 60.11075 29.47668 17565 ft 462 kts 105°
2026-05-05 17:37 60.10684 29.51852 17184 ft 460 kts 105°
2026-05-05 17:37 60.09899 29.60223 16507 ft 453 kts 105°
2026-05-05 17:37 60.09318 29.66392 15976 ft 449 kts 105°
2026-05-05 17:38 60.08736 29.72517 15454 ft 445 kts 105°
2026-05-05 17:38 60.08164 29.78522 14945 ft 441 kts 105°
2026-05-05 17:38 60.07588 29.84531 14447 ft 438 kts 105°
2026-05-05 17:38 60.07014 29.90496 13916 ft 434 kts 105°
2026-05-05 17:39 60.06442 29.96420 13433 ft 429 kts 105°
2026-05-05 17:39 60.05861 30.02242 12901 ft 423 kts 108°
2026-05-05 17:39 60.04793 30.07561 12285 ft 404 kts 130°
2026-05-05 17:39 60.03142 30.12020 11728 ft 396 kts 134°
2026-05-05 17:40 60.01524 30.16474 11098 ft 395 kts 133°
2026-05-05 17:40 59.99944 30.20929 10499 ft 393 kts 132°
2026-05-05 17:40 59.98397 30.25333 9902 ft 390 kts 132°
2026-05-05 17:40 59.96880 30.29671 9625 ft 367 kts 132°
2026-05-05 17:41 59.95478 30.33699 9556 ft 342 kts 133°
2026-05-05 17:41 59.94154 30.37472 9399 ft 322 kts 133°
2026-05-05 17:41 59.92898 30.41029 9265 ft 304 kts 134°
2026-05-05 17:41 59.91703 30.44397 9088 ft 289 kts 134°
2026-05-05 17:42 59.90556 30.47617 8720 ft 283 kts 134°
2026-05-05 17:42 59.89412 30.50809 8245 ft 282 kts 134°
2026-05-05 17:42 59.88297 30.53959 7791 ft 282 kts 134°
2026-05-05 17:42 59.87142 30.57214 7156 ft 287 kts 134°
2026-05-05 17:43 59.86002 30.60443 6635 ft 288 kts 133°
2026-05-05 17:43 59.84878 30.63744 6198 ft 286 kts 132°
2026-05-05 17:43 59.83768 30.67013 5700 ft 285 kts 131°
2026-05-05 17:43 59.82687 30.70311 5197 ft 285 kts 129°
2026-05-05 17:44 59.81647 30.73670 4793 ft 282 kts 128°
2026-05-05 17:44 59.80636 30.76880 4689 ft 265 kts 134°
2026-05-05 17:44 59.79308 30.79204 4143 ft 254 kts 161°
2026-05-05 17:44 59.77600 30.79913 3479 ft 253 kts 191°
2026-05-05 17:45 59.75995 30.78775 3175 ft 240 kts 221°
2026-05-05 17:45 59.74824 30.76553 3050 ft 228 kts 233°
2026-05-05 17:45 59.74180 30.73822 2897 ft 216 kts 268°
2026-05-05 17:45 59.74362 30.71017 2841 ft 202 kts 279°
2026-05-05 17:46 59.74635 30.68366 2709 ft 190 kts 282°
2026-05-05 17:46 59.74954 30.65878 2571 ft 180 kts 284°
2026-05-05 17:46 59.75272 30.63602 2501 ft 167 kts 285°
2026-05-05 17:46 59.75588 30.61392 2507 ft 166 kts 285°
2026-05-05 17:47 59.75899 30.59243 2496 ft 156 kts 285°
2026-05-05 17:47 59.76190 30.57235 2490 ft 147 kts 285°
2026-05-05 17:47 59.76474 30.55280 2496 ft 147 kts 285°
2026-05-05 17:47 59.76755 30.53342 2479 ft 144 kts 285°
2026-05-05 17:48 59.77027 30.51465 2355 ft 141 kts 286°
2026-05-05 17:48 59.77293 30.49640 2163 ft 136 kts 286°
2026-05-05 17:48 59.77545 30.47911 1985 ft 127 kts 286°
2026-05-05 17:48 59.77787 30.46253 1811 ft 125 kts 286°
2026-05-05 17:49 59.78032 30.44571 1653 ft 128 kts 287°
2026-05-05 17:49 59.78273 30.42860 1460 ft 129 kts 287°
2026-05-05 17:49 59.78498 30.41138 1295 ft 132 kts 285°
2026-05-05 17:49 59.78744 30.39338 1078 ft 137 kts 285°
2026-05-05 17:50 59.78997 30.37532 857 ft 134 kts 286°
2026-05-05 17:50 59.79175 30.36347 742 ft 131 kts 287°
2026-05-05 17:50 59.79454 30.34599 571 ft 138 kts 287°
2026-05-05 17:50 59.79733 30.32747 380 ft 140 kts 287°
2026-05-05 17:51 59.80013 30.30918 178 ft 136 kts 287°
2026-05-05 17:51 59.80275 30.29171 71 ft 123 kts 288°
2026-05-05 17:51 59.80479 30.27849 71 ft 79 kts 286°
2026-05-05 17:51 59.80590 30.27109 80 ft 43 kts 286°
2026-05-05 17:52 59.80635 30.26801 81 ft 11 kts 286°
2026-05-05 17:52 59.80630 30.26674 82 ft 10 kts 222°
2026-05-05 17:52 59.80568 30.26622 80 ft 10 kts 198°
2026-05-05 17:52 59.80513 30.26590 84 ft 6 kts 196°
2026-05-05 17:53 59.80473 30.26569 79 ft 6 kts 188°
2026-05-05 17:53 59.80437 30.26604 79 ft 6 kts 128°
2026-05-05 17:53 59.80422 30.26692 79 ft 8 kts 107°
2026-05-05 17:53 59.80377 30.26750 82 ft 10 kts 191°
2026-05-05 17:54 59.80304 30.26708 80 ft 12 kts 196°
2026-05-05 17:54 59.80216 30.26658 79 ft 14 kts 196°
2026-05-05 17:54 59.80124 30.26603 79 ft 6 kts 197°
2026-05-05 17:54 59.80103 30.26539 84 ft 7 kts 272°
2026-05-05 17:55 59.80109 30.26486 80 ft 1 kts 285°
2026-05-05 17:55 59.80110 30.26479 80 ft 0 kts 285°